Location: *
(46.1006°N, 1.8394°E)
Time: 09:08:00
(UTC+00:00)

Cosmos 1441 Rocket - Pass Details

Date: 20 September 2019
Orbit: 496 x 542 km, 81.1° (Epoch: 13 October)

Event Time Altitude Azimuth Distance (km) Brightness Sun altitude
Rises 19:11:11 0° 203° (SSW) 2,621 6.9 -13.8°
Reaches altitude 10° 19:13:22 10° 209° (SSW) 1,732 6.0 -14.2°
Maximum altitude 19:17:02 47° 284° (WNW) 685 4.3 -14.8°
Drops below altitude 10° 19:20:42 10° 360° (N) 1,724 6.1 -15.4°
Sets 19:22:53 0° 6° (N) 2,608 6.9 -15.8°
